TimePDT,TemperatureF,Dew PointF,Humidity,Sea Level PressureIn,VisibilityMPH,Wind Direction,Wind SpeedMPH,Gust SpeedMPH,PrecipitationIn,Events,Conditions,WindDirDegrees,DateUTC
12:53 AM,41.0,35.1,79,29.95,10.0,North,3.5,-,N/A,,Partly Cloudy,350,2013-10-01 07:53:00
1:53 AM,41.0,36.0,82,29.96,10.0,ENE,3.5,-,N/A,,Partly Cloudy,60,2013-10-01 08:53:00
2:53 AM,41.0,36.0,82,29.96,10.0,Calm,Calm,-,N/A,,Mostly Cloudy,0,2013-10-01 09:53:00
3:53 AM,37.9,34.0,86,29.96,10.0,SW,3.5,-,N/A,,Partly Cloudy,220,2013-10-01 10:53:00
4:53 AM,39.9,36.0,86,29.96,10.0,NW,5.8,-,N/A,,Overcast,310,2013-10-01 11:53:00
5:53 AM,37.0,34.0,89,29.97,10.0,WNW,5.8,-,N/A,,Scattered Clouds,300,2013-10-01 12:53:00
6:53 AM,39.0,36.0,89,29.97,10.0,NW,3.5,-,N/A,,Mostly Cloudy,310,2013-10-01 13:53:00
7:53 AM,39.0,35.1,86,29.99,10.0,Calm,Calm,-,N/A,,Partly Cloudy,0,2013-10-01 14:53:00
8:53 AM,44.1,39.0,82,30.00,10.0,Calm,Calm,-,N/A,,Scattered Clouds,0,2013-10-01 15:53:00
9:53 AM,48.9,39.0,69,30.00,10.0,SE,3.5,-,N/A,,Scattered Clouds,140,2013-10-01 16:53:00
10:53 AM,51.1,39.0,63,30.00,10.0,Calm,Calm,-,N/A,,Mostly Cloudy,0,2013-10-01 17:53:00
11:53 AM,52.0,39.9,63,30.00,10.0,SSE,3.5,-,N/A,,Mostly Cloudy,150,2013-10-01 18:53:00
12:53 PM,55.0,39.9,57,30.01,10.0,WSW,9.2,-,N/A,,Partly Cloudy,240,2013-10-01 19:53:00
1:53 PM,57.0,39.0,51,30.02,10.0,WSW,8.1,-,N/A,,Partly Cloudy,240,2013-10-01 20:53:00
2:53 PM,57.9,36.0,44,30.02,10.0,WSW,4.6,-,N/A,,Scattered Clouds,240,2013-10-01 21:53:00
3:53 PM,57.9,36.0,44,30.03,10.0,South,6.9,-,N/A,,Scattered Clouds,180,2013-10-01 22:53:00
4:53 PM,60.1,30.9,33,30.04,10.0,WNW,13.8,20.7,N/A,,Scattered Clouds,300,2013-10-01 23:53:00
5:53 PM,57.0,30.9,37,30.06,10.0,West,11.5,-,N/A,,Partly Cloudy,280,2013-10-02 00:53:00
6:53 PM,52.0,32.0,47,30.08,10.0,WSW,4.6,-,N/A,,Partly Cloudy,240,2013-10-02 01:53:00
7:53 PM,50.0,33.1,52,30.10,10.0,WSW,8.1,-,N/A,,Clear,250,2013-10-02 02:53:00
8:53 PM,46.9,33.1,59,30.12,10.0,Calm,Calm,-,N/A,,Clear,0,2013-10-02 03:53:00
9:53 PM,42.1,33.1,70,30.14,10.0,Calm,Calm,-,N/A,,Clear,0,2013-10-02 04:53:00
10:53 PM,39.0,32.0,76,30.15,10.0,Calm,Calm,-,N/A,,Clear,0,2013-10-02 05:53:00
11:53 PM,37.9,32.0,79,30.16,10.0,West,5.8,-,N/A,,Clear,260,2013-10-02 06:53:00